Year,Month,Day,Hour,Minute,Value (Times are PST for temperature in C)
2014,06,22,00,00,13.10
2014,06,22,00,01,13.10
2014,06,22,00,02,13.10
2014,06,22,00,03,13.10
2014,06,22,00,04,13.10
2014,06,22,00,05,13.00
2014,06,22,00,06,13.00
2014,06,22,00,07,13.00
2014,06,22,00,08,13.00
2014,06,22,00,09,13.00
2014,06,22,00,10,13.00
2014,06,22,00,11,13.00
2014,06,22,00,12,13.00
2014,06,22,00,13,13.00
2014,06,22,00,14,12.90
2014,06,22,00,15,12.90
2014,06,22,00,16,12.90
2014,06,22,00,17,12.90
2014,06,22,00,18,12.90
2014,06,22,00,19,12.80
2014,06,22,00,20,12.80
2014,06,22,00,21,12.80
2014,06,22,00,22,12.80
2014,06,22,00,23,12.80
2014,06,22,00,24,12.80
2014,06,22,00,25,12.80
2014,06,22,00,26,12.80
2014,06,22,00,27,12.80
2014,06,22,00,28,12.80
2014,06,22,00,29,12.80
2014,06,22,00,30,12.80
2014,06,22,00,31,12.80
2014,06,22,00,32,12.80
2014,06,22,00,33,12.80
2014,06,22,00,34,12.80
2014,06,22,00,35,12.80
2014,06,22,00,36,12.80
2014,06,22,00,37,12.80
2014,06,22,00,38,12.80
2014,06,22,00,39,12.80
2014,06,22,00,40,12.80
2014,06,22,00,41,12.80
2014,06,22,00,42,12.80
2014,06,22,00,43,12.80
2014,06,22,00,44,12.80
2014,06,22,00,45,12.80
2014,06,22,00,46,12.80
2014,06,22,00,47,12.80
2014,06,22,00,48,12.80
2014,06,22,00,49,12.80
2014,06,22,00,50,12.80
2014,06,22,00,51,12.80
2014,06,22,00,52,12.80
2014,06,22,00,53,12.80
2014,06,22,00,54,12.80
2014,06,22,00,55,12.80
2014,06,22,00,56,12.80
2014,06,22,00,57,12.80
2014,06,22,00,58,12.80
2014,06,22,00,59,12.80
2014,06,22,01,00,12.80
2014,06,22,01,01,12.80
2014,06,22,01,02,12.70
2014,06,22,01,03,12.70
2014,06,22,01,04,12.70
2014,06,22,01,05,12.70
2014,06,22,01,06,12.70
2014,06,22,01,07,12.70
2014,06,22,01,08,12.60
2014,06,22,01,09,12.60
2014,06,22,01,10,12.60
2014,06,22,01,11,12.60
2014,06,22,01,12,12.60
2014,06,22,01,13,12.60
2014,06,22,01,14,12.60
2014,06,22,01,15,12.60
2014,06,22,01,16,12.60
2014,06,22,01,17,12.60
2014,06,22,01,18,12.60
2014,06,22,01,19,12.60
2014,06,22,01,20,12.60
2014,06,22,01,21,12.60
2014,06,22,01,22,12.50
2014,06,22,01,23,12.50
2014,06,22,01,24,12.50
2014,06,22,01,25,12.50
2014,06,22,01,26,12.50
2014,06,22,01,27,12.50
2014,06,22,01,28,12.50
2014,06,22,01,29,12.50
2014,06,22,01,30,12.50
2014,06,22,01,31,12.50
2014,06,22,01,32,12.50
2014,06,22,01,33,12.50
2014,06,22,01,34,12.50
2014,06,22,01,35,12.50
2014,06,22,01,36,12.50
2014,06,22,01,37,12.50
2014,06,22,01,38,12.50
2014,06,22,01,39,12.50
2014,06,22,01,40,12.40
2014,06,22,01,41,12.40
2014,06,22,01,42,12.40
2014,06,22,01,43,12.40
2014,06,22,01,44,12.40
2014,06,22,01,45,12.40
2014,06,22,01,46,12.30
2014,06,22,01,47,12.30
2014,06,22,01,48,12.30
2014,06,22,01,49,12.30
2014,06,22,01,50,12.30
2014,06,22,01,51,12.30
2014,06,22,01,52,12.30
2014,06,22,01,53,12.30
2014,06,22,01,54,12.30
2014,06,22,01,55,12.30
2014,06,22,01,56,12.30
2014,06,22,01,57,12.20
2014,06,22,01,58,12.20
2014,06,22,01,59,12.20
2014,06,22,02,00,12.20
2014,06,22,02,01,12.20
2014,06,22,02,02,12.20
2014,06,22,02,03,12.20
2014,06,22,02,04,12.10
2014,06,22,02,05,12.10
2014,06,22,02,06,12.10
2014,06,22,02,07,12.10
2014,06,22,02,08,12.10
2014,06,22,02,09,12.10
2014,06,22,02,10,12.00
2014,06,22,02,11,12.00
2014,06,22,02,12,12.00
2014,06,22,02,13,12.00
2014,06,22,02,14,12.00
2014,06,22,02,15,12.00
2014,06,22,02,16,11.90
2014,06,22,02,17,11.90
2014,06,22,02,18,11.90
2014,06,22,02,19,11.90
2014,06,22,02,20,11.90
2014,06,22,02,21,11.80
2014,06,22,02,22,11.80
2014,06,22,02,23,11.80
2014,06,22,02,24,11.80
2014,06,22,02,25,11.80
2014,06,22,02,26,11.80
2014,06,22,02,27,11.80
2014,06,22,02,28,11.80
2014,06,22,02,29,11.80
2014,06,22,02,30,11.80
2014,06,22,02,31,11.80
2014,06,22,02,32,11.80
2014,06,22,02,33,11.80
2014,06,22,02,34,11.80
2014,06,22,02,35,11.80
2014,06,22,02,36,11.80
2014,06,22,02,37,11.80
2014,06,22,02,38,11.80
2014,06,22,02,39,11.90
2014,06,22,02,40,11.90
2014,06,22,02,41,11.90
2014,06,22,02,42,11.90
2014,06,22,02,43,11.90
2014,06,22,02,44,11.90
2014,06,22,02,45,11.90
2014,06,22,02,46,11.90
2014,06,22,02,47,11.90
2014,06,22,02,48,11.90
2014,06,22,02,49,11.90
2014,06,22,02,50,11.90
2014,06,22,02,51,11.90
2014,06,22,02,52,11.80
2014,06,22,02,53,11.80
2014,06,22,02,54,11.80
2014,06,22,02,55,11.80
2014,06,22,02,56,11.80
2014,06,22,02,57,11.70
2014,06,22,02,58,11.70
2014,06,22,02,59,11.70
2014,06,22,03,00,11.70
2014,06,22,03,01,11.70
2014,06,22,03,02,11.70
2014,06,22,03,03,11.70
2014,06,22,03,04,11.70
2014,06,22,03,05,11.70
2014,06,22,03,06,11.70
2014,06,22,03,07,11.70
2014,06,22,03,08,11.80
2014,06,22,03,09,11.80
2014,06,22,03,10,11.80
2014,06,22,03,11,11.80
2014,06,22,03,12,11.80
2014,06,22,03,13,11.80
2014,06,22,03,14,11.80
2014,06,22,03,15,11.80
2014,06,22,03,16,11.80
2014,06,22,03,17,11.80
2014,06,22,03,18,11.80
2014,06,22,03,19,11.80
2014,06,22,03,20,11.80
2014,06,22,03,21,11.70
2014,06,22,03,22,11.70
2014,06,22,03,23,11.60
2014,06,22,03,24,11.60
2014,06,22,03,25,11.60
2014,06,22,03,26,11.60
2014,06,22,03,27,11.50
2014,06,22,03,28,11.40
2014,06,22,03,29,11.40
2014,06,22,03,30,11.40
2014,06,22,03,31,11.40
2014,06,22,03,32,11.30
2014,06,22,03,33,11.30
2014,06,22,03,34,11.30
2014,06,22,03,35,11.20
2014,06,22,03,36,11.20
2014,06,22,03,37,11.20
2014,06,22,03,38,11.20
2014,06,22,03,39,11.10
2014,06,22,03,40,11.10
2014,06,22,03,41,11.10
2014,06,22,03,42,11.10
2014,06,22,03,43,11.10
2014,06,22,03,44,11.00
2014,06,22,03,45,10.90
2014,06,22,03,46,10.90
2014,06,22,03,47,10.90
2014,06,22,03,48,10.90
2014,06,22,03,49,10.90
2014,06,22,03,50,10.80
2014,06,22,03,51,10.80
2014,06,22,03,52,10.80
2014,06,22,03,53,10.80
2014,06,22,03,54,10.70
2014,06,22,03,55,10.70
2014,06,22,03,56,10.70
2014,06,22,03,57,10.70
2014,06,22,03,58,10.70
2014,06,22,03,59,10.70
2014,06,22,04,00,10.70
2014,06,22,04,01,10.60
2014,06,22,04,02,10.60
2014,06,22,04,03,10.60
2014,06,22,04,04,10.60
2014,06,22,04,05,10.60
2014,06,22,04,06,10.60
2014,06,22,04,07,10.60
2014,06,22,04,08,10.60
2014,06,22,04,09,10.60
2014,06,22,04,10,10.60
2014,06,22,04,11,10.60
2014,06,22,04,12,10.60
2014,06,22,04,13,10.60
2014,06,22,04,14,10.60
2014,06,22,04,15,10.60
2014,06,22,04,16,10.60
2014,06,22,04,17,10.70
2014,06,22,04,18,10.70
2014,06,22,04,19,10.70
2014,06,22,04,20,10.70
2014,06,22,04,21,10.70
2014,06,22,04,22,10.70
2014,06,22,04,23,10.70
2014,06,22,04,24,10.70
2014,06,22,04,25,10.70
2014,06,22,04,26,10.70
2014,06,22,04,27,10.70
2014,06,22,04,28,10.70
2014,06,22,04,29,10.70
2014,06,22,04,30,10.70
2014,06,22,04,31,10.70
2014,06,22,04,32,10.70
2014,06,22,04,33,10.70
2014,06,22,04,34,10.70
2014,06,22,04,35,10.60
2014,06,22,04,36,10.60
2014,06,22,04,37,10.60
2014,06,22,04,38,10.60
2014,06,22,04,39,10.60
2014,06,22,04,40,10.60
2014,06,22,04,41,10.60
2014,06,22,04,42,10.60
2014,06,22,04,43,10.60
2014,06,22,04,44,10.60
2014,06,22,04,45,10.60
2014,06,22,04,46,10.60
2014,06,22,04,47,10.60
2014,06,22,04,48,10.60
2014,06,22,04,49,10.60
2014,06,22,04,50,10.60
2014,06,22,04,51,10.60
2014,06,22,04,52,10.60
2014,06,22,04,53,10.60
2014,06,22,04,54,10.60
2014,06,22,04,55,10.60
2014,06,22,04,56,10.60
2014,06,22,04,57,10.60
2014,06,22,04,58,10.60
2014,06,22,04,59,10.60
2014,06,22,05,00,10.60
2014,06,22,05,01,10.60
2014,06,22,05,02,10.60
2014,06,22,05,03,10.60
2014,06,22,05,04,10.50
2014,06,22,05,05,10.40
2014,06,22,05,06,10.40
2014,06,22,05,07,10.40
2014,06,22,05,08,10.40
2014,06,22,05,09,10.40
2014,06,22,05,10,10.40
2014,06,22,05,11,10.40
2014,06,22,05,12,10.40
2014,06,22,05,13,10.40
2014,06,22,05,14,10.40
2014,06,22,05,15,10.40
2014,06,22,05,16,10.40
2014,06,22,05,17,10.40
2014,06,22,05,18,10.40
2014,06,22,05,19,10.40
2014,06,22,05,20,10.40
2014,06,22,05,21,10.40
2014,06,22,05,22,10.40
2014,06,22,05,23,10.40
2014,06,22,05,24,10.40
2014,06,22,05,25,10.40
2014,06,22,05,26,10.40
2014,06,22,05,27,10.40
2014,06,22,05,28,10.40
2014,06,22,05,29,10.40
2014,06,22,05,30,10.40
2014,06,22,05,31,10.30
2014,06,22,05,32,10.30
2014,06,22,05,33,10.30
2014,06,22,05,34,10.30
2014,06,22,05,35,10.30
2014,06,22,05,36,10.40
2014,06,22,05,37,10.40
2014,06,22,05,38,10.40
2014,06,22,05,39,10.40
2014,06,22,05,40,10.40
2014,06,22,05,41,10.40
2014,06,22,05,42,10.40
2014,06,22,05,43,10.50
2014,06,22,05,44,10.60
2014,06,22,05,45,10.60
2014,06,22,05,46,10.70
2014,06,22,05,47,10.70
2014,06,22,05,48,10.80
2014,06,22,05,49,10.80
2014,06,22,05,50,10.90
2014,06,22,05,51,10.90
2014,06,22,05,52,10.90
2014,06,22,05,53,11.10
2014,06,22,05,54,11.10
2014,06,22,05,55,11.10
2014,06,22,05,56,11.20
2014,06,22,05,57,11.30
2014,06,22,05,58,11.30
2014,06,22,05,59,11.40
2014,06,22,06,00,11.40
2014,06,22,06,01,11.40
2014,06,22,06,02,11.40
2014,06,22,06,03,11.40
2014,06,22,06,04,11.40
2014,06,22,06,05,11.40
2014,06,22,06,06,11.40
2014,06,22,06,07,11.40
2014,06,22,06,08,11.40
2014,06,22,06,09,11.50
2014,06,22,06,10,11.60
2014,06,22,06,11,11.60
2014,06,22,06,12,11.60
2014,06,22,06,13,11.60
2014,06,22,06,14,11.60
2014,06,22,06,15,11.70
2014,06,22,06,16,11.70
2014,06,22,06,17,11.70
2014,06,22,06,18,11.70
2014,06,22,06,19,11.80
2014,06,22,06,20,11.80
2014,06,22,06,21,11.80
2014,06,22,06,22,11.80
2014,06,22,06,23,11.80
2014,06,22,06,24,11.90
2014,06,22,06,25,11.90
2014,06,22,06,26,11.90
2014,06,22,06,27,11.90
2014,06,22,06,28,11.90
2014,06,22,06,29,11.90
2014,06,22,06,30,12.00
2014,06,22,06,31,12.00
2014,06,22,06,32,12.00
2014,06,22,06,33,12.00
2014,06,22,06,34,12.00
2014,06,22,06,35,12.00
2014,06,22,06,36,12.00
2014,06,22,06,37,11.90
2014,06,22,06,38,11.90
2014,06,22,06,39,11.90
2014,06,22,06,40,11.90
2014,06,22,06,41,11.90
2014,06,22,06,42,11.90
2014,06,22,06,43,11.90
2014,06,22,06,44,11.90
2014,06,22,06,45,11.90
2014,06,22,06,46,11.90
2014,06,22,06,47,11.90
2014,06,22,06,48,11.90
2014,06,22,06,49,12.00
2014,06,22,06,50,12.00
2014,06,22,06,51,12.00
2014,06,22,06,52,12.10
2014,06,22,06,53,12.10
2014,06,22,06,54,12.20
2014,06,22,06,55,12.20
2014,06,22,06,56,12.30
2014,06,22,06,57,12.30
2014,06,22,06,58,12.40
2014,06,22,06,59,12.40
2014,06,22,07,00,12.50
2014,06,22,07,01,12.50
2014,06,22,07,02,12.60
2014,06,22,07,03,12.60
2014,06,22,07,04,12.70
2014,06,22,07,05,12.70
2014,06,22,07,06,12.80
2014,06,22,07,07,12.80
2014,06,22,07,08,12.90
2014,06,22,07,09,13.00
2014,06,22,07,10,13.10
2014,06,22,07,11,13.30
2014,06,22,07,12,13.40
2014,06,22,07,13,13.50
2014,06,22,07,14,13.60
2014,06,22,07,15,13.70
2014,06,22,07,16,13.80
2014,06,22,07,17,13.90
2014,06,22,07,18,14.00
2014,06,22,07,19,14.10
2014,06,22,07,20,14.20
2014,06,22,07,21,14.20
2014,06,22,07,22,14.30
2014,06,22,07,23,14.50
2014,06,22,07,24,14.50
2014,06,22,07,25,14.60
2014,06,22,07,26,14.70
2014,06,22,07,27,14.70
2014,06,22,07,28,14.80
2014,06,22,07,29,14.90
2014,06,22,07,30,14.90
2014,06,22,07,31,15.00
2014,06,22,07,32,15.00
2014,06,22,07,33,15.10
2014,06,22,07,34,15.10
2014,06,22,07,35,15.20
2014,06,22,07,36,15.30
2014,06,22,07,37,15.30
2014,06,22,07,38,15.30
2014,06,22,07,39,15.40
2014,06,22,07,40,15.50
2014,06,22,07,41,15.60
2014,06,22,07,42,15.60
2014,06,22,07,43,15.60
2014,06,22,07,44,15.60
2014,06,22,07,45,15.60
2014,06,22,07,46,15.60
2014,06,22,07,47,15.50
2014,06,22,07,48,15.50
2014,06,22,07,49,15.40
2014,06,22,07,50,15.30
2014,06,22,07,51,15.30
2014,06,22,07,52,15.20
2014,06,22,07,53,15.20
2014,06,22,07,54,15.20
2014,06,22,07,55,15.20
2014,06,22,07,56,15.10
2014,06,22,07,57,15.10
2014,06,22,07,58,15.00
2014,06,22,07,59,15.00
2014,06,22,08,00,15.00
2014,06,22,08,01,15.00
2014,06,22,08,02,14.90
2014,06,22,08,03,14.90
2014,06,22,08,04,14.90
2014,06,22,08,05,14.90
2014,06,22,08,06,15.00
2014,06,22,08,07,15.00
2014,06,22,08,08,15.10
2014,06,22,08,09,15.10
2014,06,22,08,10,15.10
2014,06,22,08,11,15.10
2014,06,22,08,12,15.10
2014,06,22,08,13,15.10
2014,06,22,08,14,15.00
2014,06,22,08,15,15.00
2014,06,22,08,16,15.00
2014,06,22,08,17,14.90
2014,06,22,08,18,14.90
2014,06,22,08,19,14.90
2014,06,22,08,20,14.90
2014,06,22,08,21,14.90
2014,06,22,08,22,14.90
2014,06,22,08,23,14.90
2014,06,22,08,24,14.90
2014,06,22,08,25,15.00
2014,06,22,08,26,15.00
2014,06,22,08,27,15.10
2014,06,22,08,28,15.10
2014,06,22,08,29,15.10
2014,06,22,08,30,15.20
2014,06,22,08,31,15.20
2014,06,22,08,32,15.20
2014,06,22,08,33,15.20
2014,06,22,08,34,15.30
2014,06,22,08,35,15.30
2014,06,22,08,36,15.30
2014,06,22,08,37,15.30
2014,06,22,08,38,15.30
2014,06,22,08,39,15.30
2014,06,22,08,40,15.30
2014,06,22,08,41,15.30
2014,06,22,08,42,15.30
2014,06,22,08,43,15.30
2014,06,22,08,44,15.30
2014,06,22,08,45,15.30
2014,06,22,08,46,15.30
2014,06,22,08,47,15.40
2014,06,22,08,48,15.40
2014,06,22,08,49,15.40
2014,06,22,08,50,15.40
2014,06,22,08,51,15.50
2014,06,22,08,52,15.50
2014,06,22,08,53,15.50
2014,06,22,08,54,15.50
2014,06,22,08,55,15.60
2014,06,22,08,56,15.60
2014,06,22,08,57,15.60
2014,06,22,08,58,15.70
2014,06,22,08,59,15.70
2014,06,22,09,00,15.70
2014,06,22,09,01,15.80
2014,06,22,09,02,15.80
2014,06,22,09,03,15.90
2014,06,22,09,04,15.90
2014,06,22,09,05,15.90
2014,06,22,09,06,15.90
2014,06,22,09,07,15.90
2014,06,22,09,08,15.90
2014,06,22,09,09,15.80
2014,06,22,09,10,15.80
2014,06,22,09,11,15.80
2014,06,22,09,12,15.80
2014,06,22,09,13,15.70
2014,06,22,09,14,15.70
2014,06,22,09,15,15.70
2014,06,22,09,16,15.60
2014,06,22,09,17,15.60
2014,06,22,09,18,15.50
2014,06,22,09,19,15.60
2014,06,22,09,20,15.60
2014,06,22,09,21,15.60
2014,06,22,09,22,15.60
2014,06,22,09,23,15.70
2014,06,22,09,24,15.70
2014,06,22,09,25,15.70
2014,06,22,09,26,15.80
2014,06,22,09,27,15.80
2014,06,22,09,28,15.90
2014,06,22,09,29,16.00
2014,06,22,09,30,16.10
2014,06,22,09,31,16.10
2014,06,22,09,32,16.10
2014,06,22,09,33,16.10
2014,06,22,09,34,16.10
2014,06,22,09,35,16.10
2014,06,22,09,36,16.10
2014,06,22,09,37,16.20
2014,06,22,09,38,16.20
2014,06,22,09,39,16.20
2014,06,22,09,40,16.30
2014,06,22,09,41,16.30
2014,06,22,09,42,16.40
2014,06,22,09,43,16.40
2014,06,22,09,44,16.40
2014,06,22,09,45,16.40
2014,06,22,09,46,16.40
2014,06,22,09,47,16.40
2014,06,22,09,48,16.40
2014,06,22,09,49,16.40
2014,06,22,09,50,16.40
2014,06,22,09,51,16.40
2014,06,22,09,52,16.40
2014,06,22,09,53,16.40
2014,06,22,09,54,16.40
2014,06,22,09,55,16.40
2014,06,22,09,56,16.40
2014,06,22,09,57,16.40
2014,06,22,09,58,16.40
2014,06,22,09,59,16.40
2014,06,22,10,00,16.40
2014,06,22,10,01,16.40
2014,06,22,10,02,16.40
2014,06,22,10,03,16.40
2014,06,22,10,04,16.30
2014,06,22,10,05,16.30
2014,06,22,10,06,16.40
2014,06,22,10,07,16.40
2014,06,22,10,08,16.50
2014,06,22,10,09,16.60
2014,06,22,10,10,16.70
2014,06,22,10,11,16.60
2014,06,22,10,12,16.50
2014,06,22,10,13,16.40
2014,06,22,10,14,16.30
2014,06,22,10,15,16.20
2014,06,22,10,16,16.20
2014,06,22,10,17,16.10
2014,06,22,10,18,16.10
2014,06,22,10,19,16.10
2014,06,22,10,20,16.10
2014,06,22,10,21,16.00
2014,06,22,10,22,15.90
2014,06,22,10,23,15.90
2014,06,22,10,24,15.90
2014,06,22,10,25,15.90
2014,06,22,10,26,15.90
2014,06,22,10,27,15.90
2014,06,22,10,28,16.00
2014,06,22,10,29,16.10
2014,06,22,10,30,16.10
2014,06,22,10,31,16.20
2014,06,22,10,32,16.30
2014,06,22,10,33,16.40
2014,06,22,10,34,16.40
2014,06,22,10,35,16.40
2014,06,22,10,36,16.30
2014,06,22,10,37,16.30
2014,06,22,10,38,16.30
2014,06,22,10,39,16.30
2014,06,22,10,40,16.30
2014,06,22,10,41,16.20
2014,06,22,10,42,16.20
2014,06,22,10,43,16.20
2014,06,22,10,44,16.30
2014,06,22,10,45,16.30
2014,06,22,10,46,16.30
2014,06,22,10,47,16.40
2014,06,22,10,48,16.40
2014,06,22,10,49,16.40
2014,06,22,10,50,16.40
2014,06,22,10,51,16.40
2014,06,22,10,52,16.40
2014,06,22,10,53,16.30
2014,06,22,10,54,16.30
2014,06,22,10,55,16.30
2014,06,22,10,56,16.40
2014,06,22,10,57,16.40
2014,06,22,10,58,16.40
2014,06,22,10,59,16.40
2014,06,22,11,00,16.40
2014,06,22,11,01,16.40
2014,06,22,11,02,16.40
2014,06,22,11,03,16.40
2014,06,22,11,04,16.40
2014,06,22,11,05,16.60
2014,06,22,11,06,16.60
2014,06,22,11,07,16.70
2014,06,22,11,08,16.80
2014,06,22,11,09,16.90
2014,06,22,11,10,16.90
2014,06,22,11,11,17.00
2014,06,22,11,12,17.00
2014,06,22,11,13,17.00
2014,06,22,11,14,17.00
2014,06,22,11,15,17.00
2014,06,22,11,16,17.00
2014,06,22,11,17,17.10
2014,06,22,11,18,17.10
2014,06,22,11,19,17.10
2014,06,22,11,20,17.20
2014,06,22,11,21,17.20
2014,06,22,11,22,17.30
2014,06,22,11,23,17.30
2014,06,22,11,24,17.30
2014,06,22,11,25,17.40
2014,06,22,11,26,17.40
2014,06,22,11,27,17.40
2014,06,22,11,28,17.40
2014,06,22,11,29,17.40
2014,06,22,11,30,17.40
2014,06,22,11,31,17.50
2014,06,22,11,32,17.50
2014,06,22,11,33,17.50
2014,06,22,11,34,17.50
2014,06,22,11,35,17.50
2014,06,22,11,36,17.40
2014,06,22,11,37,17.50
2014,06,22,11,38,17.50
2014,06,22,11,39,17.50
2014,06,22,11,40,17.60
2014,06,22,11,41,17.70
2014,06,22,11,42,17.80
2014,06,22,11,43,17.90
2014,06,22,11,44,17.90
2014,06,22,11,45,18.00
2014,06,22,11,46,18.10
2014,06,22,11,47,18.20
2014,06,22,11,48,18.20
2014,06,22,11,49,18.30
2014,06,22,11,50,18.30
2014,06,22,11,51,18.40
2014,06,22,11,52,18.40
2014,06,22,11,53,18.50
2014,06,22,11,54,18.50
2014,06,22,11,55,18.60
2014,06,22,11,56,18.70
2014,06,22,11,57,18.70
2014,06,22,11,58,18.80
2014,06,22,11,59,18.90
2014,06,22,12,00,18.90
2014,06,22,12,01,18.90
2014,06,22,12,02,18.90
2014,06,22,12,03,18.90
2014,06,22,12,04,18.90
2014,06,22,12,05,18.90
2014,06,22,12,06,18.90
2014,06,22,12,07,19.00
2014,06,22,12,08,19.10
2014,06,22,12,09,19.10
2014,06,22,12,10,19.00
2014,06,22,12,11,19.00
2014,06,22,12,12,19.10
2014,06,22,12,13,19.10
2014,06,22,12,14,19.30
2014,06,22,12,15,19.40
2014,06,22,12,16,19.50
2014,06,22,12,17,19.40
2014,06,22,12,18,19.30
2014,06,22,12,19,19.20
2014,06,22,12,20,19.10
2014,06,22,12,21,19.10
2014,06,22,12,22,19.10
2014,06,22,12,23,19.10
2014,06,22,12,24,19.00
2014,06,22,12,25,18.90
2014,06,22,12,26,18.90
2014,06,22,12,27,18.90
2014,06,22,12,28,18.90
2014,06,22,12,29,19.00
2014,06,22,12,30,19.10
2014,06,22,12,31,19.10
2014,06,22,12,32,19.10
2014,06,22,12,33,19.10
2014,06,22,12,34,19.10
2014,06,22,12,35,19.20
2014,06,22,12,36,19.30
2014,06,22,12,37,19.40
2014,06,22,12,38,19.40
2014,06,22,12,39,19.40
2014,06,22,12,40,19.50
2014,06,22,12,41,19.50
2014,06,22,12,42,19.60
2014,06,22,12,43,19.70
2014,06,22,12,44,19.70
2014,06,22,12,45,19.80
2014,06,22,12,46,19.80
2014,06,22,12,47,19.90
2014,06,22,12,48,19.90
2014,06,22,12,49,19.90
2014,06,22,12,50,19.90
2014,06,22,12,51,19.90
2014,06,22,12,52,19.90
2014,06,22,12,53,19.90
2014,06,22,12,54,19.90
2014,06,22,12,55,19.90
2014,06,22,12,56,20.00
2014,06,22,12,57,20.10
2014,06,22,12,58,20.00
2014,06,22,12,59,20.10
2014,06,22,13,00,20.10
2014,06,22,13,01,20.20
2014,06,22,13,02,20.20
2014,06,22,13,03,20.10
2014,06,22,13,04,20.10
2014,06,22,13,05,20.00
2014,06,22,13,06,19.90
2014,06,22,13,07,20.00
2014,06,22,13,08,20.10
2014,06,22,13,09,20.10
2014,06,22,13,10,20.00
2014,06,22,13,11,19.90
2014,06,22,13,12,19.80
2014,06,22,13,13,19.70
2014,06,22,13,14,19.50
2014,06,22,13,15,19.40
2014,06,22,13,16,19.30
2014,06,22,13,17,19.10
2014,06,22,13,18,19.00
2014,06,22,13,19,18.90
2014,06,22,13,20,18.90
2014,06,22,13,21,18.80
2014,06,22,13,22,18.80
2014,06,22,13,23,18.80
2014,06,22,13,24,18.80
2014,06,22,13,25,18.90
2014,06,22,13,26,19.10
2014,06,22,13,27,19.10
2014,06,22,13,28,19.10
2014,06,22,13,29,19.30
2014,06,22,13,30,19.40
2014,06,22,13,31,19.40
2014,06,22,13,32,19.40
2014,06,22,13,33,19.50
2014,06,22,13,34,19.60
2014,06,22,13,35,19.60
2014,06,22,13,36,19.60
2014,06,22,13,37,19.70
2014,06,22,13,38,19.80
2014,06,22,13,39,19.90
2014,06,22,13,40,20.10
2014,06,22,13,41,20.20
2014,06,22,13,42,20.20
2014,06,22,13,43,20.30
2014,06,22,13,44,20.40
2014,06,22,13,45,20.40
2014,06,22,13,46,20.50
2014,06,22,13,47,20.50
2014,06,22,13,48,20.60
2014,06,22,13,49,20.60
2014,06,22,13,50,20.60
2014,06,22,13,51,20.70
2014,06,22,13,52,20.70
2014,06,22,13,53,20.70
2014,06,22,13,54,20.70
2014,06,22,13,55,20.80
2014,06,22,13,56,20.80
2014,06,22,13,57,20.80
2014,06,22,13,58,20.90
2014,06,22,13,59,21.00
2014,06,22,14,00,21.00
2014,06,22,14,01,21.00
2014,06,22,14,02,20.90
2014,06,22,14,03,20.90
2014,06,22,14,04,20.90
2014,06,22,14,05,20.80
2014,06,22,14,06,20.80
2014,06,22,14,07,20.90
2014,06,22,14,08,20.90
2014,06,22,14,09,20.90
2014,06,22,14,10,20.80
2014,06,22,14,11,20.80
2014,06,22,14,12,20.80
2014,06,22,14,13,20.70
2014,06,22,14,14,20.70
2014,06,22,14,15,20.70
2014,06,22,14,16,20.80
2014,06,22,14,17,20.90
2014,06,22,14,18,21.00
2014,06,22,14,19,21.00
2014,06,22,14,20,21.20
2014,06,22,14,21,21.30
2014,06,22,14,22,21.40
2014,06,22,14,23,21.50
2014,06,22,14,24,21.40
2014,06,22,14,25,21.30
2014,06,22,14,26,21.30
2014,06,22,14,27,21.30
2014,06,22,14,28,21.30
2014,06,22,14,29,21.30
2014,06,22,14,30,21.30
2014,06,22,14,31,21.30
2014,06,22,14,32,21.30
2014,06,22,14,33,21.40
2014,06,22,14,34,21.40
2014,06,22,14,35,21.40
2014,06,22,14,36,21.30
2014,06,22,14,37,21.30
2014,06,22,14,38,21.30
2014,06,22,14,39,21.30
2014,06,22,14,40,21.30
2014,06,22,14,41,21.30
2014,06,22,14,42,21.30
2014,06,22,14,43,21.40
2014,06,22,14,44,21.40
2014,06,22,14,45,21.30
2014,06,22,14,46,21.30
2014,06,22,14,47,21.30
2014,06,22,14,48,21.40
2014,06,22,14,49,21.60
2014,06,22,14,50,21.60
2014,06,22,14,51,21.60
2014,06,22,14,52,21.60
2014,06,22,14,53,21.60
2014,06,22,14,54,21.60
2014,06,22,14,55,21.60
2014,06,22,14,56,21.80
2014,06,22,14,57,21.80
2014,06,22,14,58,21.90
2014,06,22,14,59,21.90
2014,06,22,15,00,22.00
2014,06,22,15,01,22.00
2014,06,22,15,02,21.90
2014,06,22,15,03,21.80
2014,06,22,15,04,21.60
2014,06,22,15,05,21.60
2014,06,22,15,06,21.60
2014,06,22,15,07,21.70
2014,06,22,15,08,21.70
2014,06,22,15,09,21.70
2014,06,22,15,10,21.80
2014,06,22,15,11,21.90
2014,06,22,15,12,21.90
2014,06,22,15,13,21.80
2014,06,22,15,14,21.90
2014,06,22,15,15,21.90
2014,06,22,15,16,22.00
2014,06,22,15,17,22.00
2014,06,22,15,18,22.10
2014,06,22,15,19,22.20
2014,06,22,15,20,22.30
2014,06,22,15,21,22.30
2014,06,22,15,22,22.30
2014,06,22,15,23,22.30
2014,06,22,15,24,22.30
2014,06,22,15,25,22.40
2014,06,22,15,26,22.40
2014,06,22,15,27,22.50
2014,06,22,15,28,22.50
2014,06,22,15,29,22.40
2014,06,22,15,30,22.50
2014,06,22,15,31,22.50
2014,06,22,15,32,22.50
2014,06,22,15,33,22.60
2014,06,22,15,34,22.60
2014,06,22,15,35,22.60
2014,06,22,15,36,22.50
2014,06,22,15,37,22.60
2014,06,22,15,38,22.70
2014,06,22,15,39,22.80
2014,06,22,15,40,22.90
2014,06,22,15,41,23.00
2014,06,22,15,42,23.10
2014,06,22,15,43,23.10
2014,06,22,15,44,23.20
2014,06,22,15,45,23.10
2014,06,22,15,46,23.10
2014,06,22,15,47,23.00
2014,06,22,15,48,23.10
2014,06,22,15,49,23.10
2014,06,22,15,50,23.00
2014,06,22,15,51,22.90
2014,06,22,15,52,22.70
2014,06,22,15,53,22.70
2014,06,22,15,54,22.60
2014,06,22,15,55,22.60
2014,06,22,15,56,22.60
2014,06,22,15,57,22.50
2014,06,22,15,58,22.40
2014,06,22,15,59,22.40
2014,06,22,16,00,22.50
2014,06,22,16,01,22.50
2014,06,22,16,02,22.60
2014,06,22,16,03,22.60
2014,06,22,16,04,22.60
2014,06,22,16,05,22.60
2014,06,22,16,06,22.60
2014,06,22,16,07,22.60
2014,06,22,16,08,22.60
2014,06,22,16,09,22.60
2014,06,22,16,10,22.50
2014,06,22,16,11,22.40
2014,06,22,16,12,22.40
2014,06,22,16,13,22.50
2014,06,22,16,14,22.50
2014,06,22,16,15,22.60
2014,06,22,16,16,22.60
2014,06,22,16,17,22.60
2014,06,22,16,18,22.70
2014,06,22,16,19,22.80
2014,06,22,16,20,22.90
2014,06,22,16,21,23.10
2014,06,22,16,22,23.20
2014,06,22,16,23,23.20
2014,06,22,16,24,23.20
2014,06,22,16,25,23.20
2014,06,22,16,26,23.30
2014,06,22,16,27,23.30
2014,06,22,16,28,23.30
2014,06,22,16,29,23.40
2014,06,22,16,30,23.40
2014,06,22,16,31,23.40
2014,06,22,16,32,23.30
2014,06,22,16,33,23.30
2014,06,22,16,34,23.30
2014,06,22,16,35,23.40
2014,06,22,16,36,23.50
2014,06,22,16,37,23.60
2014,06,22,16,38,23.70
2014,06,22,16,39,23.70
2014,06,22,16,40,23.70
2014,06,22,16,41,23.80
2014,06,22,16,42,23.80
2014,06,22,16,43,23.70
2014,06,22,16,44,23.70
2014,06,22,16,45,23.60
2014,06,22,16,46,23.60
2014,06,22,16,47,23.60
2014,06,22,16,48,23.70
2014,06,22,16,49,23.60
2014,06,22,16,50,23.60
2014,06,22,16,51,23.60
2014,06,22,16,52,23.60
2014,06,22,16,53,23.60
2014,06,22,16,54,23.60
2014,06,22,16,55,23.50
2014,06,22,16,56,23.30
2014,06,22,16,57,23.10
2014,06,22,16,58,23.00
2014,06,22,16,59,22.90
2014,06,22,17,00,22.90
2014,06,22,17,01,22.80
2014,06,22,17,02,22.80
2014,06,22,17,03,22.60
2014,06,22,17,04,22.60
2014,06,22,17,05,22.40
2014,06,22,17,06,22.40
2014,06,22,17,07,22.40
2014,06,22,17,08,22.50
2014,06,22,17,09,22.50
2014,06,22,17,10,22.60
2014,06,22,17,11,22.70
2014,06,22,17,12,22.70
2014,06,22,17,13,22.70
2014,06,22,17,14,22.70
2014,06,22,17,15,22.80
2014,06,22,17,16,22.90
2014,06,22,17,17,23.00
2014,06,22,17,18,23.10
2014,06,22,17,19,23.30